Time,TemperatureF,DewpointF,PressureIn,WindDirection,WindDirectionDegrees,WindSpeedMPH,WindSpeedGustMPH,Humidity,HourlyPrecipIn,Conditions,Clouds,dailyrainin,SoftwareType,DateUTC
2013-02-19 00:07:00,30.5,29.0,30.30,WSW,238,0.0,0.0,95,0.00,,,0.00,weatherlink.com 1.10,2013-02-19 05:07:00,
2013-02-19 00:23:00,30.6,30.0,30.30,WSW,238,0.0,0.0,96,0.00,,,0.00,weatherlink.com 1.10,2013-02-19 05:23:00,
2013-02-19 00:37:00,30.6,30.0,30.29,WSW,238,0.0,1.0,96,0.00,,,0.00,weatherlink.com 1.10,2013-02-19 05:37:00,
2013-02-19 00:53:00,30.6,30.0,30.29,WSW,238,0.0,0.0,96,0.00,,,0.00,weatherlink.com 1.10,2013-02-19 05:53:00,
2013-02-19 01:07:00,30.7,30.0,30.29,WSW,238,0.0,0.0,96,0.00,,,0.00,weatherlink.com 1.10,2013-02-19 06:07:00,
2013-02-19 01:22:00,30.9,30.0,30.28,WSW,238,0.0,0.0,96,0.00,,,0.00,weatherlink.com 1.10,2013-02-19 06:22:00,
2013-02-19 01:38:00,30.8,30.0,30.27,WSW,238,0.0,0.0,96,0.00,,,0.00,weatherlink.com 1.10,2013-02-19 06:38:00,
2013-02-19 01:53:00,30.9,30.0,30.27,WSW,238,0.0,0.0,96,0.00,,,0.00,weatherlink.com 1.10,2013-02-19 06:53:00,
2013-02-19 02:07:00,30.8,30.0,30.26,WSW,238,0.0,0.0,96,0.00,,,0.00,weatherlink.com 1.10,2013-02-19 07:07:00,
2013-02-19 02:23:00,30.9,30.0,30.26,WSW,238,0.0,0.0,96,0.00,,,0.00,weatherlink.com 1.10,2013-02-19 07:23:00,
2013-02-19 02:38:00,31.3,30.0,30.25,WSW,238,0.0,0.0,96,0.00,,,0.00,weatherlink.com 1.10,2013-02-19 07:38:00,
2013-02-19 02:53:00,31.7,31.0,30.24,WSW,238,0.0,0.0,96,0.00,,,0.00,weatherlink.com 1.10,2013-02-19 07:53:00,
2013-02-19 03:08:00,32.0,31.0,30.23,WSW,238,0.0,0.0,96,0.00,,,0.00,weatherlink.com 1.10,2013-02-19 08:08:00,
2013-02-19 03:23:00,32.5,32.0,30.22,WSW,238,0.0,1.0,97,0.00,,,0.00,weatherlink.com 1.10,2013-02-19 08:23:00,
2013-02-19 03:38:00,33.9,33.0,30.21,WSW,238,0.0,1.0,98,0.00,,,0.00,weatherlink.com 1.10,2013-02-19 08:38:00,
2013-02-19 03:53:00,34.9,34.0,30.20,WSW,238,0.0,0.0,97,0.00,,,0.00,weatherlink.com 1.10,2013-02-19 08:53:00,
2013-02-19 04:08:00,35.2,35.0,30.20,WSW,238,0.0,0.0,97,0.00,,,0.00,weatherlink.com 1.10,2013-02-19 09:08:00,
2013-02-19 04:24:00,35.8,35.0,30.20,WSW,238,0.0,0.0,98,0.00,,,0.00,weatherlink.com 1.10,2013-02-19 09:24:00,
2013-02-19 04:38:00,35.3,35.0,30.20,WSW,238,0.0,1.0,97,0.00,,,0.00,weatherlink.com 1.10,2013-02-19 09:38:00,
2013-02-19 04:53:00,35.0,34.0,30.19,WSW,238,0.0,0.0,97,0.00,,,0.00,weatherlink.com 1.10,2013-02-19 09:53:00,
2013-02-19 05:08:00,34.8,34.0,30.18,WSW,238,0.0,0.0,97,0.00,,,0.00,weatherlink.com 1.10,2013-02-19 10:08:00,
2013-02-19 05:23:00,35.1,34.0,30.18,WSW,238,0.0,0.0,97,0.00,,,0.00,weatherlink.com 1.10,2013-02-19 10:23:00,
2013-02-19 05:38:00,35.5,35.0,30.17,WSW,238,0.0,0.0,98,0.00,,,0.00,weatherlink.com 1.10,2013-02-19 10:38:00,
2013-02-19 05:53:00,36.3,36.0,30.18,WSW,238,0.0,0.0,98,0.00,,,0.00,weatherlink.com 1.10,2013-02-19 10:53:00,
2013-02-19 06:08:00,37.5,37.0,30.17,WSW,238,0.0,0.0,98,0.00,,,0.00,weatherlink.com 1.10,2013-02-19 11:08:00,
2013-02-19 06:23:00,38.0,38.0,30.17,SW,236,0.0,0.0,98,0.00,,,0.00,weatherlink.com 1.10,2013-02-19 11:23:00,
2013-02-19 06:38:00,38.4,38.0,30.17,SW,236,0.0,0.0,98,0.00,,,0.00,weatherlink.com 1.10,2013-02-19 11:38:00,
2013-02-19 06:53:00,38.5,38.0,30.17,SW,236,0.0,0.0,98,0.00,,,0.00,weatherlink.com 1.10,2013-02-19 11:53:00,
2013-02-19 07:08:00,38.5,38.0,30.17,SW,236,0.0,0.0,98,0.00,,,0.00,weatherlink.com 1.10,2013-02-19 12:08:00,
2013-02-19 07:24:00,39.1,39.0,30.15,SW,236,0.0,0.0,98,0.00,,,0.00,weatherlink.com 1.10,2013-02-19 12:24:00,
2013-02-19 07:38:00,40.6,40.0,30.15,SW,236,0.0,0.0,98,0.00,,,0.00,weatherlink.com 1.10,2013-02-19 12:38:00,
2013-02-19 07:54:00,42.5,42.0,30.16,SW,236,0.0,0.0,99,0.00,,,0.00,weatherlink.com 1.10,2013-02-19 12:54:00,
2013-02-19 08:08:00,46.4,46.0,30.16,SW,236,0.0,0.0,99,0.00,,,0.00,weatherlink.com 1.10,2013-02-19 13:08:00,
2013-02-19 08:24:00,49.3,49.0,30.16,SW,236,0.0,0.0,99,0.00,,,0.00,weatherlink.com 1.10,2013-02-19 13:24:00,
2013-02-19 08:39:00,50.6,50.0,30.16,SW,236,0.0,0.0,99,0.00,,,0.00,weatherlink.com 1.10,2013-02-19 13:39:00,
2013-02-19 08:54:00,51.7,52.0,30.16,SW,236,0.0,0.0,99,0.00,,,0.00,weatherlink.com 1.10,2013-02-19 13:54:00,
2013-02-19 09:09:00,52.6,52.0,30.17,SW,236,0.0,1.0,98,0.00,,,0.00,weatherlink.com 1.10,2013-02-19 14:09:00,
2013-02-19 09:24:00,54.8,54.0,30.16,SW,215,0.0,2.0,97,0.00,,,0.00,weatherlink.com 1.10,2013-02-19 14:24:00,
2013-02-19 09:39:00,57.7,53.0,30.16,SW,233,1.0,4.0,83,0.00,,,0.00,weatherlink.com 1.10,2013-02-19 14:39:00,
2013-02-19 09:54:00,59.1,52.0,30.15,SW,235,3.0,6.0,77,0.00,,,0.00,weatherlink.com 1.10,2013-02-19 14:54:00,
2013-02-19 10:09:00,59.7,51.0,30.14,SW,214,1.0,8.0,74,0.00,,,0.00,weatherlink.com 1.10,2013-02-19 15:09:00,
2013-02-19 10:24:00,60.4,51.0,30.14,SW,225,6.0,9.0,71,0.00,,,0.00,weatherlink.com 1.10,2013-02-19 15:24:00,
2013-02-19 10:39:00,61.0,50.0,30.13,West,273,2.0,10.0,68,0.00,,,0.00,weatherlink.com 1.10,2013-02-19 15:39:00,
2013-02-19 10:54:00,62.1,50.0,30.12,WSW,249,1.0,10.0,65,0.00,,,0.00,weatherlink.com 1.10,2013-02-19 15:54:00,
2013-02-19 11:10:00,62.3,50.0,30.11,SW,231,3.0,7.0,65,0.00,,,0.00,weatherlink.com 1.10,2013-02-19 16:10:00,
2013-02-19 11:24:00,63.0,50.0,30.10,SSW,211,5.0,9.0,63,0.00,,,0.00,weatherlink.com 1.10,2013-02-19 16:24:00,
2013-02-19 11:40:00,63.6,50.0,30.10,West,269,3.0,14.0,61,0.00,,,0.00,weatherlink.com 1.10,2013-02-19 16:40:00,
2013-02-19 11:54:00,63.8,51.0,30.10,SW,225,1.0,6.0,63,0.00,,,0.00,weatherlink.com 1.10,2013-02-19 16:54:00,
2013-02-19 12:10:00,64.3,51.0,30.09,SSW,205,7.0,9.0,62,0.00,,,0.00,weatherlink.com 1.10,2013-02-19 17:10:00,
2013-02-19 12:24:00,64.3,51.0,30.08,WNW,300,1.0,7.0,62,0.00,,,0.00,weatherlink.com 1.10,2013-02-19 17:24:00,
2013-02-19 12:39:00,63.7,50.0,30.08,NW,312,1.0,11.0,61,0.00,,,0.00,weatherlink.com 1.10,2013-02-19 17:39:00,
2013-02-19 12:55:00,63.5,50.0,30.06,SW,228,2.0,11.0,62,0.00,,,0.00,weatherlink.com 1.10,2013-02-19 17:55:00,
2013-02-19 13:10:00,62.6,51.0,30.06,WSW,256,2.0,7.0,65,0.00,,,0.00,weatherlink.com 1.10,2013-02-19 18:10:00,
2013-02-19 13:25:00,61.4,52.0,30.06,WSW,243,0.0,7.0,70,0.00,,,0.00,weatherlink.com 1.10,2013-02-19 18:25:00,
2013-02-19 13:40:00,59.9,52.0,30.05,West,266,0.0,9.0,76,0.01,,,0.01,weatherlink.com 1.10,2013-02-19 18:40:00,
2013-02-19 13:55:00,59.3,53.0,30.04,West,262,2.0,7.0,79,0.01,,,0.01,weatherlink.com 1.10,2013-02-19 18:55:00,
2013-02-19 14:10:00,58.8,53.0,30.03,WSW,246,1.0,8.0,81,0.01,,,0.01,weatherlink.com 1.10,2013-02-19 19:10:00,
2013-02-19 14:25:00,59.0,53.0,30.02,SW,236,6.0,8.0,81,0.01,,,0.01,weatherlink.com 1.10,2013-02-19 19:25:00,
2013-02-19 14:40:00,58.2,54.0,30.02,WSW,252,1.0,9.0,86,0.01,,,0.02,weatherlink.com 1.10,2013-02-19 19:40:00,
2013-02-19 14:55:00,57.2,54.0,30.01,SSW,207,2.0,10.0,90,0.03,,,0.04,weatherlink.com 1.10,2013-02-19 19:55:00,
2013-02-19 15:10:00,56.8,55.0,30.01,SW,230,6.0,8.0,93,0.04,,,0.05,weatherlink.com 1.10,2013-02-19 20:10:00,
2013-02-19 15:25:00,56.7,55.0,30.00,SSW,204,2.0,7.0,94,0.06,,,0.07,weatherlink.com 1.10,2013-02-19 20:25:00,
2013-02-19 15:40:00,56.7,55.0,30.00,SW,219,5.0,10.0,95,0.06,,,0.08,weatherlink.com 1.10,2013-02-19 20:40:00,
2013-02-19 15:55:00,56.7,55.0,30.00,SW,228,5.0,13.0,95,0.05,,,0.09,weatherlink.com 1.10,2013-02-19 20:55:00,
2013-02-19 16:10:00,56.7,56.0,29.99,SW,232,7.0,10.0,96,0.05,,,0.10,weatherlink.com 1.10,2013-02-19 21:10:00,
2013-02-19 16:25:00,56.7,56.0,29.99,NE,49,2.0,13.0,96,0.03,,,0.10,weatherlink.com 1.10,2013-02-19 21:25:00,
2013-02-19 16:40:00,56.7,56.0,29.99,SW,214,5.0,8.0,96,0.02,,,0.10,weatherlink.com 1.10,2013-02-19 21:40:00,
2013-02-19 16:55:00,56.9,56.0,29.99,WNW,291,4.0,8.0,96,0.01,,,0.10,weatherlink.com 1.10,2013-02-19 21:55:00,
2013-02-19 17:10:00,56.9,56.0,30.00,SSW,208,0.0,7.0,96,0.00,,,0.10,weatherlink.com 1.10,2013-02-19 22:10:00,
2013-02-19 17:25:00,56.8,56.0,29.99,SW,235,1.0,8.0,96,0.00,,,0.10,weatherlink.com 1.10,2013-02-19 22:25:00,
2013-02-19 17:40:00,56.7,56.0,29.99,West,260,1.0,6.0,96,0.00,,,0.10,weatherlink.com 1.10,2013-02-19 22:40:00,
2013-02-19 17:55:00,56.6,56.0,30.00,WSW,239,4.0,8.0,97,0.00,,,0.10,weatherlink.com 1.10,2013-02-19 22:55:00,
2013-02-19 18:10:00,56.5,56.0,30.00,WSW,249,4.0,8.0,97,0.00,,,0.10,weatherlink.com 1.10,2013-02-19 23:10:00,
2013-02-19 18:25:00,56.4,56.0,30.00,SSW,203,2.0,8.0,97,0.00,,,0.10,weatherlink.com 1.10,2013-02-19 23:25:00,
2013-02-19 18:40:00,56.3,56.0,30.00,West,266,2.0,6.0,97,0.00,,,0.10,weatherlink.com 1.10,2013-02-19 23:40:00,
2013-02-19 18:55:00,56.1,55.0,30.00,WSW,238,2.0,6.0,97,0.00,,,0.10,weatherlink.com 1.10,2013-02-19 23:55:00,
2013-02-19 19:10:00,56.0,55.0,30.01,SW,236,1.0,4.0,97,0.00,,,0.10,weatherlink.com 1.10,2013-02-20 00:10:00,
2013-02-19 19:25:00,55.9,55.0,30.01,WNW,284,1.0,7.0,97,0.00,,,0.10,weatherlink.com 1.10,2013-02-20 00:25:00,
2013-02-19 19:40:00,55.7,55.0,30.01,WNW,303,1.0,4.0,96,0.00,,,0.10,weatherlink.com 1.10,2013-02-20 00:40:00,
2013-02-19 19:55:00,55.3,54.0,30.01,WSW,254,1.0,6.0,95,0.00,,,0.10,weatherlink.com 1.10,2013-02-20 00:55:00,
2013-02-19 20:10:00,54.6,53.0,30.01,WSW,257,1.0,5.0,95,0.00,,,0.10,weatherlink.com 1.10,2013-02-20 01:10:00,
2013-02-19 20:25:00,54.1,53.0,30.02,WSW,249,0.0,4.0,95,0.00,,,0.10,weatherlink.com 1.10,2013-02-20 01:25:00,
2013-02-19 20:40:00,53.8,53.0,30.02,SW,233,0.0,9.0,96,0.00,,,0.10,weatherlink.com 1.10,2013-02-20 01:40:00,
2013-02-19 20:56:00,53.4,52.0,30.03,SW,233,1.0,4.0,95,0.00,,,0.10,weatherlink.com 1.10,2013-02-20 01:56:00,
2013-02-19 21:10:00,52.8,52.0,30.04,West,266,0.0,3.0,96,0.00,,,0.10,weatherlink.com 1.10,2013-02-20 02:10:00,
2013-02-19 21:26:00,52.2,51.0,30.04,West,278,2.0,3.0,96,0.00,,,0.10,weatherlink.com 1.10,2013-02-20 02:26:00,
2013-02-19 21:41:00,51.5,50.0,30.04,WSW,256,0.0,1.0,96,0.00,,,0.10,weatherlink.com 1.10,2013-02-20 02:41:00,
2013-02-19 21:55:00,50.9,50.0,30.04,SW,222,0.0,1.0,97,0.00,,,0.10,weatherlink.com 1.10,2013-02-20 02:55:00,
2013-02-19 22:11:00,50.4,50.0,30.03,SW,231,0.0,2.0,97,0.00,,,0.10,weatherlink.com 1.10,2013-02-20 03:11:00,
2013-02-19 22:25:00,50.1,49.0,30.03,SW,218,0.0,3.0,97,0.00,,,0.10,weatherlink.com 1.10,2013-02-20 03:25:00,
2013-02-19 22:40:00,50.0,49.0,30.03,WSW,250,1.0,2.0,97,0.00,,,0.10,weatherlink.com 1.10,2013-02-20 03:40:00,
2013-02-19 22:55:00,49.7,49.0,30.04,WSW,249,0.0,2.0,98,0.00,,,0.10,weatherlink.com 1.10,2013-02-20 03:55:00,
2013-02-19 23:10:00,49.4,49.0,30.03,WSW,246,2.0,2.0,98,0.00,,,0.10,weatherlink.com 1.10,2013-02-20 04:10:00,
2013-02-19 23:26:00,49.1,49.0,30.03,SW,228,0.0,4.0,98,0.00,,,0.10,weatherlink.com 1.10,2013-02-20 04:26:00,
2013-02-19 23:41:00,49.0,49.0,30.03,SW,236,0.0,2.0,98,0.00,,,0.10,weatherlink.com 1.10,2013-02-20 04:41:00,
2013-02-19 23:56:00,49.0,49.0,30.04,SW,236,1.0,3.0,98,0.00,,,0.10,weatherlink.com 1.10,2013-02-20 04:56:00,